Caldwell, NJ

3:12 AM EDT on April 25, 2017 (GMT -0400)
Essex County

Weather History for KCDW - November, 2013

Change the Weather History Date:

Thursday, November 28, 2013

  Actual Average Record
Temperature  
Mean Temperature 30 °F -  
Max Temperature 34 °F 50 °F 66 °F (1998)
Min Temperature 27 °F 32 °F 14 °F (1949)
Degree Days  
Heating Degree Days 34    
Moisture  
Dew Point 11 °F    
Average Humidity 45    
Maximum Humidity 58    
Minimum Humidity 31    
Precipitation  
Precipitation 0.00 in - - ()
Sea Level Pressure  
Sea Level Pressure 30.25 in    
Wind  
Wind Speed 13 mph (NW)    
Max Wind Speed 21 mph    
Max Gust Speed 31 mph    
Visibility 10 miles    
Events      
Averages and records for this station are not official NWS values.
T = Trace of Precipitation, MM = Missing Value Source: NWS Daily Summary

Daily Weather History Graph

Daily Weather History Graph

Search for Another Location

Airport or City:

Trip Planner

Search our weather history database for the weather conditions in past years. The results will help you decide how hot, cold, wet, or windy it might be!

Date:

Astronomy

Nov. 28, 2013 Rise Set
Actual Time 6:59 AM EST 4:30 PM EST
Civil Twilight 6:29 AM EST 5:01 PM EST
Nautical Twilight 5:55 AM EST 5:35 PM EST
Astronomical Twilight 5:22 AM EST 6:08 PM EST
Moon 1:57 AM EST (11/28) 1:40 PM EST (11/28)
Length of Visible Light 10h 32m
Length of Day
9h 31m
Waning Crescent, 22% of the Moon is Illuminated
Nov 28
Waning Crescent
Dec 2
New
Dec 9
First Quarter
Dec 17
Full
Dec 25
Last Quarter

Hourly Weather History & Observations

Time (EST) Temp. Windchill Dew Point Humidity Pressure Visibility Wind Dir Wind Speed Gust Speed Precip Events Conditions
12:53 AM 32.0 °F 19.8 °F 12.9 °F 45% 29.83 in 10.0 mi WNW 20.7 mph 31.1 mph N/A   Clear
1:53 AM 30.9 °F 19.4 °F 14.0 °F 50% 29.87 in 10.0 mi WNW 17.3 mph 28.8 mph N/A   Overcast
2:53 AM 30.0 °F 17.9 °F 12.9 °F 49% 29.93 in 10.0 mi WNW 18.4 mph 24.2 mph N/A   Mostly Cloudy
3:53 AM 30.0 °F 19.5 °F 12.0 °F 47% 29.98 in 10.0 mi NW 13.8 mph 31.1 mph N/A   Overcast
4:53 AM 30.0 °F 19.1 °F 15.1 °F 54% 30.04 in 10.0 mi NW 15.0 mph 24.2 mph N/A   Overcast
5:53 AM 28.9 °F 19.8 °F 12.9 °F 51% 30.09 in 10.0 mi WNW 10.4 mph 20.7 mph N/A   Mostly Cloudy
6:53 AM 28.9 °F 18.2 °F 12.0 °F 49% 30.14 in 10.0 mi NW 13.8 mph 23.0 mph N/A   Mostly Cloudy
7:53 AM 28.0 °F 18.6 °F 10.9 °F 49% 30.19 in 10.0 mi WNW 10.4 mph 18.4 mph N/A   Overcast
8:53 AM 28.9 °F 18.2 °F 10.0 °F 45% 30.23 in 10.0 mi NW 13.8 mph 24.2 mph N/A   Partly Cloudy
9:53 AM 30.0 °F 19.5 °F 9.0 °F 41% 30.27 in 10.0 mi NW 13.8 mph 21.9 mph N/A   Partly Cloudy
10:53 AM 30.9 °F 19.4 °F 8.1 °F 38% 30.27 in 10.0 mi NW 17.3 mph 26.5 mph N/A   Clear
11:53 AM 32.0 °F 22.5 °F 7.0 °F 35% 30.28 in 10.0 mi NW 12.7 mph 27.6 mph N/A   Clear
12:53 PM 34.0 °F 26.0 °F 8.1 °F 34% 30.29 in 10.0 mi NW 10.4 mph 17.3 mph N/A   Clear
1:53 PM 34.0 °F 25.0 °F 6.1 °F 31% 30.30 in 10.0 mi NW 12.7 mph 24.2 mph N/A   Clear
2:53 PM 34.0 °F 25.0 °F 6.1 °F 31% 30.32 in 10.0 mi NW 12.7 mph 19.6 mph N/A   Clear
3:53 PM 33.1 °F 26.9 °F 6.1 °F 32% 30.35 in 10.0 mi NW 6.9 mph - N/A   Clear
4:53 PM 30.9 °F 27.5 °F 8.1 °F 38% 30.38 in 10.0 mi NW 3.5 mph - N/A   Clear
5:53 PM 30.0 °F 26.5 °F 7.0 °F 38% 30.43 in 10.0 mi NW 3.5 mph - N/A   Clear
6:53 PM 28.0 °F - 10.0 °F 47% 30.45 in 10.0 mi Calm Calm - N/A   Clear
7:53 PM 27.0 °F - 12.0 °F 53% 30.47 in 10.0 mi Calm Calm - N/A   Scattered Clouds
8:53 PM 27.0 °F - 14.0 °F 58% 30.48 in 10.0 mi Calm Calm - N/A   Overcast
9:53 PM 28.9 °F - 12.9 °F 51% 30.49 in 10.0 mi Calm Calm - N/A   Overcast
10:53 PM 28.9 °F - 14.0 °F 54% 30.50 in 10.0 mi Calm Calm - N/A   Overcast
11:53 PM 28.9 °F - 12.9 °F 51% 30.51 in 10.0 mi Calm Calm - N/A   Overcast